AFL783 UUWW-ULLI

Flight info

Callsign AFL783
Flight time 1h 0m
Altitude 36000
Route SUNUN3Z SUNUN M869 RAVKA N50 NUDKO T561 ODATI T875 GENPA GENPA1V
Aircraft B38M/M-SDE1FGHILORVWXY/HB1

Departure

Time 2026-05-04 13:38
Airport Vnukovo International Airport (UUWW)

Arrival

Time 2026-05-04 14:38
Airport Pulkovo Airport (ULLI)
Time Latitude Longitude Altitude Speed Heading
2026-05-04 13:20 55.60227 37.28440 678 ft 0 kts 315°
2026-05-04 13:27 55.60224 37.28445 678 ft 3 kts 315°
2026-05-04 13:27 55.60205 37.28479 680 ft 4 kts 316°
2026-05-04 13:27 55.60185 37.28511 678 ft 4 kts 319°
2026-05-04 13:27 55.60166 37.28539 682 ft 2 kts 321°
2026-05-04 13:28 55.60165 37.28540 682 ft 1 kts 321°
2026-05-04 13:33 55.60171 37.28538 675 ft 3 kts 352°
2026-05-04 13:33 55.60207 37.28615 682 ft 13 kts 66°
2026-05-04 13:33 55.60178 37.28769 679 ft 15 kts 134°
2026-05-04 13:34 55.60091 37.28881 682 ft 17 kts 162°
2026-05-04 13:34 55.59986 37.28925 687 ft 13 kts 167°
2026-05-04 13:34 55.59927 37.28950 683 ft 1 kts 166°
2026-05-04 13:35 55.59925 37.28951 681 ft 1 kts 166°
2026-05-04 13:35 55.59897 37.28962 684 ft 8 kts 167°
2026-05-04 13:36 55.59820 37.28987 692 ft 14 kts 185°
2026-05-04 13:36 55.59767 37.28872 689 ft 12 kts 249°
2026-05-04 13:36 55.59761 37.28849 688 ft 0 kts 249°
2026-05-04 13:36 55.59757 37.28831 690 ft 3 kts 249°
2026-05-04 13:37 55.59745 37.28773 689 ft 7 kts 249°
2026-05-04 13:37 55.59708 37.28607 687 ft 42 kts 248°
2026-05-04 13:37 55.59490 37.27637 678 ft 126 kts 249°
2026-05-04 13:37 55.59241 37.26510 734 ft 164 kts 248°
2026-05-04 13:38 55.58635 37.23874 1860 ft 177 kts 248°
2026-05-04 13:38 55.58066 37.21925 2770 ft 189 kts 233°
2026-05-04 13:38 55.57189 37.20017 3471 ft 211 kts 232°
2026-05-04 13:38 55.56247 37.17895 4103 ft 227 kts 232°
2026-05-04 13:39 55.55300 37.15579 4752 ft 234 kts 244°
2026-05-04 13:39 55.54943 37.12811 5565 ft 234 kts 268°
2026-05-04 13:39 55.54896 37.09920 6309 ft 237 kts 270°
2026-05-04 13:39 55.55071 37.07011 6952 ft 243 kts 290°
2026-05-04 13:40 55.55988 37.04500 7474 ft 247 kts 316°
2026-05-04 13:40 55.57460 37.02965 7549 ft 249 kts 343°
2026-05-04 13:40 55.59176 37.02721 7652 ft 250 kts 358°
2026-05-04 13:40 55.60925 37.02688 7813 ft 252 kts 356°
2026-05-04 13:41 55.62685 37.02658 7933 ft 253 kts 357°
2026-05-04 13:41 55.64460 37.02390 7940 ft 261 kts 341°
2026-05-04 13:41 55.66168 37.01186 7963 ft 267 kts 336°
2026-05-04 13:42 55.69663 36.98658 7984 ft 272 kts 336°
2026-05-04 13:42 55.71414 36.97378 7996 ft 272 kts 336°
2026-05-04 13:42 55.73163 36.96095 7997 ft 272 kts 336°
2026-05-04 13:42 55.74903 36.94774 8003 ft 272 kts 335°
2026-05-04 13:43 55.76641 36.93447 7996 ft 272 kts 335°
2026-05-04 13:43 55.78383 36.92117 7994 ft 272 kts 335°
2026-05-04 13:43 55.80111 36.90732 8069 ft 273 kts 327°
2026-05-04 13:43 55.81407 36.88444 8874 ft 270 kts 303°
2026-05-04 13:44 55.82127 36.85324 9675 ft 277 kts 285°
2026-05-04 13:44 55.82582 36.81970 10507 ft 281 kts 285°
2026-05-04 13:44 55.83026 36.78563 11332 ft 285 kts 285°
2026-05-04 13:44 55.83459 36.75104 12113 ft 289 kts 284°
2026-05-04 13:45 55.83887 36.71583 12897 ft 293 kts 284°
2026-05-04 13:45 55.84311 36.68015 13659 ft 297 kts 284°
2026-05-04 13:45 55.84737 36.64393 14429 ft 301 kts 284°
2026-05-04 13:45 55.85166 36.60719 15175 ft 305 kts 284°
2026-05-04 13:46 55.85598 36.57003 15907 ft 309 kts 284°
2026-05-04 13:46 55.86146 36.53300 16587 ft 310 kts 296°
2026-05-04 13:46 55.87343 36.50140 17260 ft 310 kts 317°
2026-05-04 13:46 55.89130 36.48003 17889 ft 313 kts 338°
2026-05-04 13:47 55.91253 36.47121 18500 ft 318 kts 356°
2026-05-04 13:47 55.93474 36.47394 19086 ft 323 kts
2026-05-04 13:47 55.95722 36.47881 19652 ft 328 kts
2026-05-04 13:47 55.97994 36.48426 20235 ft 331 kts
2026-05-04 13:48 56.00285 36.49007 20802 ft 334 kts
2026-05-04 13:48 56.02596 36.49607 21344 ft 338 kts
2026-05-04 13:48 56.04971 36.49632 21492 ft 350 kts 348°
2026-05-04 13:48 56.07291 36.48107 21555 ft 364 kts 327°
2026-05-04 13:49 56.09217 36.45066 21716 ft 377 kts 308°
2026-05-04 13:49 56.10483 36.40887 21950 ft 390 kts 289°
2026-05-04 13:49 56.11203 36.36213 22239 ft 397 kts 287°
2026-05-04 13:49 56.11963 36.31455 22804 ft 397 kts 287°
2026-05-04 13:50 56.12712 36.26691 23281 ft 399 kts 286°
2026-05-04 13:50 56.13462 36.21863 23685 ft 403 kts 286°
2026-05-04 13:50 56.14213 36.17006 24120 ft 406 kts 286°
2026-05-04 13:50 56.15023 36.12146 24527 ft 408 kts 292°
2026-05-04 13:51 56.16243 36.07539 24956 ft 410 kts 296°
2026-05-04 13:51 56.17484 36.02908 25364 ft 413 kts 296°
2026-05-04 13:51 56.18729 35.98254 25760 ft 415 kts 296°
2026-05-04 13:51 56.20022 35.93600 26161 ft 417 kts 302°
2026-05-04 13:52 56.24146 35.86296 26882 ft 422 kts 321°
2026-05-04 13:52 56.26480 35.83068 27228 ft 425 kts 322°
2026-05-04 13:52 56.28841 35.79847 27576 ft 427 kts 322°
2026-05-04 13:53 56.30422 35.77707 27795 ft 429 kts 322°
2026-05-04 13:53 56.33592 35.73434 28252 ft 431 kts 322°
2026-05-04 13:53 56.35997 35.70197 28557 ft 433 kts 322°
2026-05-04 13:54 56.40846 35.63656 29197 ft 437 kts 322°
2026-05-04 13:54 56.42492 35.61431 29388 ft 438 kts 322°
2026-05-04 13:54 56.47393 35.54793 29986 ft 442 kts 322°
2026-05-04 13:55 56.49822 35.51493 30260 ft 444 kts 322°
2026-05-04 13:55 56.54782 35.44742 30816 ft 447 kts 322°
2026-05-04 13:55 56.57269 35.41346 31078 ft 449 kts 322°
2026-05-04 13:56 56.59764 35.37936 31384 ft 449 kts 322°
2026-05-04 13:56 56.62253 35.34528 31748 ft 448 kts 322°
2026-05-04 13:56 56.67204 35.27730 32519 ft 445 kts 322°
2026-05-04 13:57 56.69668 35.24340 32879 ft 444 kts 322°
2026-05-04 13:57 56.72126 35.20950 33240 ft 442 kts 322°
2026-05-04 13:58 56.79448 35.10822 34308 ft 438 kts 321°
2026-05-04 13:58 56.84299 35.04084 34885 ft 438 kts 321°
2026-05-04 13:58 56.86719 35.00715 35175 ft 438 kts 321°
2026-05-04 13:59 56.89141 34.97340 35459 ft 437 kts 321°
2026-05-04 13:59 56.91609 34.94080 35690 ft 439 kts 326°
2026-05-04 13:59 56.96766 34.88060 35890 ft 439 kts 325°
2026-05-04 14:00 56.99318 34.85018 35881 ft 437 kts 325°
2026-05-04 14:00 57.06925 34.75882 35884 ft 437 kts 325°
2026-05-04 14:01 57.12016 34.69738 35884 ft 437 kts 325°
2026-05-04 14:02 57.19639 34.60500 35884 ft 437 kts 325°
2026-05-04 14:02 57.24724 34.54312 35882 ft 438 kts 325°
2026-05-04 14:03 57.29810 34.48104 35884 ft 438 kts 325°
2026-05-04 14:03 57.34886 34.41884 35885 ft 438 kts 324°
2026-05-04 14:04 57.42497 34.32521 35885 ft 438 kts 324°
2026-05-04 14:04 57.47568 34.26256 35883 ft 437 kts 324°
2026-05-04 14:05 57.55130 34.16875 35882 ft 437 kts 324°
2026-05-04 14:06 57.60184 34.10577 35884 ft 437 kts 324°
2026-05-04 14:06 57.65243 34.04253 35883 ft 437 kts 324°
2026-05-04 14:07 57.70297 33.97912 35885 ft 437 kts 324°
2026-05-04 14:07 57.75345 33.91559 35883 ft 437 kts 324°
2026-05-04 14:08 57.80397 33.85180 35885 ft 437 kts 324°
2026-05-04 14:08 57.85441 33.78792 35884 ft 437 kts 324°
2026-05-04 14:09 57.92566 33.68145 35884 ft 436 kts 320°
2026-05-04 14:10 57.99625 33.57404 35659 ft 432 kts 319°
2026-05-04 14:10 58.04300 33.50277 35666 ft 433 kts 319°
2026-05-04 14:11 58.08979 33.43118 35663 ft 433 kts 319°
2026-05-04 14:11 58.15993 33.32351 35665 ft 433 kts 319°
2026-05-04 14:12 58.20660 33.25140 35665 ft 433 kts 319°
2026-05-04 14:13 58.27620 33.14353 35665 ft 432 kts 319°
2026-05-04 14:13 58.32273 33.07109 35663 ft 432 kts 319°
2026-05-04 14:14 58.36926 32.99841 35665 ft 432 kts 319°
2026-05-04 14:14 58.41591 32.92527 33842 ft 442 kts 319°
2026-05-04 14:14 58.43972 32.88785 33147 ft 441 kts 319°
2026-05-04 14:15 58.48704 32.81327 31469 ft 444 kts 319°
2026-05-04 14:15 58.53434 32.73845 30235 ft 436 kts 319°
2026-05-04 14:16 58.58068 32.66487 29033 ft 430 kts 319°
2026-05-04 14:16 58.60361 32.62838 28418 ft 427 kts 319°
2026-05-04 14:17 58.64871 32.55640 27231 ft 422 kts 319°
2026-05-04 14:17 58.67122 32.52038 26629 ft 420 kts 319°
2026-05-04 14:17 58.71581 32.44884 25442 ft 415 kts 318°
2026-05-04 14:18 58.73790 32.41332 24846 ft 413 kts 318°
2026-05-04 14:18 58.78177 32.34257 23693 ft 409 kts 318°
2026-05-04 14:19 58.82516 32.27237 22541 ft 405 kts 318°
2026-05-04 14:19 58.84668 32.23747 21987 ft 403 kts 317°
2026-05-04 14:19 58.86807 32.20271 21420 ft 401 kts 317°
2026-05-04 14:19 58.88931 32.16814 20884 ft 398 kts 316°
2026-05-04 14:20 58.91036 32.13383 20346 ft 394 kts 316°
2026-05-04 14:20 58.93127 32.09969 19822 ft 391 kts 316°
2026-05-04 14:20 58.95195 32.06586 19305 ft 388 kts 316°
2026-05-04 14:21 58.99277 31.99894 18297 ft 381 kts 316°
2026-05-04 14:21 59.01294 31.96581 17808 ft 378 kts 316°
2026-05-04 14:21 59.03294 31.93291 17324 ft 375 kts 316°
2026-05-04 14:21 59.05252 31.90067 16912 ft 370 kts 316°
2026-05-04 14:22 59.07193 31.86865 16641 ft 362 kts 316°
2026-05-04 14:22 59.09098 31.83718 16250 ft 358 kts 316°
2026-05-04 14:22 59.10945 31.80519 15778 ft 354 kts 312°
2026-05-04 14:22 59.12696 31.77167 15339 ft 352 kts 312°
2026-05-04 14:23 59.16172 31.70582 14473 ft 346 kts 312°
2026-05-04 14:23 59.17896 31.67326 14021 ft 344 kts 312°
2026-05-04 14:23 59.19614 31.64078 13566 ft 342 kts 312°
2026-05-04 14:24 59.21317 31.60856 13114 ft 340 kts 312°
2026-05-04 14:24 59.23011 31.57645 12666 ft 338 kts 312°
2026-05-04 14:24 59.24692 31.54456 12218 ft 336 kts 311°
2026-05-04 14:24 59.26364 31.51279 11761 ft 334 kts 311°
2026-05-04 14:25 59.28021 31.48101 11262 ft 333 kts 311°
2026-05-04 14:25 59.31306 31.41794 10400 ft 328 kts 311°
2026-05-04 14:25 59.32929 31.38671 9972 ft 326 kts 311°
2026-05-04 14:26 59.34540 31.35568 9542 ft 323 kts 311°
2026-05-04 14:26 59.36136 31.32490 9117 ft 321 kts 311°
2026-05-04 14:26 59.37721 31.29427 8699 ft 319 kts 311°
2026-05-04 14:26 59.39302 31.26370 8276 ft 318 kts 311°
2026-05-04 14:27 59.40872 31.23327 7850 ft 316 kts 311°
2026-05-04 14:27 59.42436 31.20293 7437 ft 315 kts 311°
2026-05-04 14:27 59.43990 31.17275 7013 ft 313 kts 311°
2026-05-04 14:27 59.45531 31.14277 6605 ft 311 kts 311°
2026-05-04 14:28 59.47042 31.11335 6196 ft 309 kts 311°
2026-05-04 14:28 59.48561 31.08372 5795 ft 306 kts 311°
2026-05-04 14:28 59.50071 31.05422 5392 ft 305 kts 311°
2026-05-04 14:28 59.51564 31.02491 5028 ft 300 kts 309°
2026-05-04 14:29 59.54189 30.96476 4734 ft 279 kts 306°
2026-05-04 14:29 59.56625 30.90895 4492 ft 259 kts 308°
2026-05-04 14:30 59.57393 30.89137 4416 ft 253 kts 308°
2026-05-04 14:30 59.59651 30.83974 4202 ft 233 kts 308°
2026-05-04 14:31 59.60686 30.81605 4115 ft 223 kts 308°
2026-05-04 14:31 59.62637 30.77136 3895 ft 207 kts 308°
2026-05-04 14:32 59.64448 30.72974 3709 ft 198 kts 307°
2026-05-04 14:32 59.65346 30.70912 3625 ft 198 kts 307°
2026-05-04 14:33 59.68472 30.65355 3109 ft 202 kts 321°
2026-05-04 14:33 59.69623 30.63764 2878 ft 202 kts 322°
2026-05-04 14:33 59.70780 30.62181 2651 ft 201 kts 322°
2026-05-04 14:33 59.71920 30.60594 2427 ft 200 kts 322°
2026-05-04 14:34 59.73057 30.59000 2182 ft 201 kts 322°
2026-05-04 14:34 59.74191 30.57374 2032 ft 201 kts 317°
2026-05-04 14:34 59.74922 30.55123 1945 ft 190 kts 284°
2026-05-04 14:34 59.75301 30.52721 2057 ft 180 kts 285°
2026-05-04 14:35 59.75683 30.50401 2012 ft 179 kts 287°
2026-05-04 14:35 59.76088 30.48098 2007 ft 172 kts 285°
2026-05-04 14:35 59.76425 30.45892 1902 ft 163 kts 284°
2026-05-04 14:35 59.76737 30.43778 1710 ft 157 kts 283°
2026-05-04 14:36 59.77043 30.41705 1533 ft 156 kts 284°
2026-05-04 14:36 59.77350 30.39641 1326 ft 156 kts 284°
2026-05-04 14:36 59.77557 30.38251 1186 ft 155 kts 283°
2026-05-04 14:36 59.77857 30.36224 997 ft 155 kts 284°
2026-05-04 14:37 59.78165 30.34154 816 ft 154 kts 284°
2026-05-04 14:37 59.78463 30.32145 591 ft 154 kts 284°
2026-05-04 14:37 59.78765 30.30113 381 ft 153 kts 284°
2026-05-04 14:37 59.79065 30.28081 178 ft 153 kts 284°
2026-05-04 14:38 59.79355 30.26120 88 ft 128 kts 285°
2026-05-04 14:38 59.79477 30.25239 87 ft 37 kts 284°
2026-05-04 14:38 59.79555 30.24816 88 ft 32 kts 289°
2026-05-04 14:38 59.79615 30.24421 92 ft 29 kts 284°
2026-05-04 14:39 59.79676 30.23965 86 ft 41 kts 286°
2026-05-04 14:39 59.79761 30.23411 89 ft 35 kts 291°
2026-05-04 14:39 59.79880 30.23041 88 ft 17 kts 317°
2026-05-04 14:40 59.79936 30.23005 89 ft 1 kts
2026-05-04 14:40 59.79983 30.23083 89 ft 12 kts 71°
2026-05-04 14:40 59.79956 30.23307 90 ft 22 kts 108°
2026-05-04 14:40 59.79905 30.23629 88 ft 26 kts 105°
2026-05-04 14:41 59.79855 30.23974 88 ft 27 kts 107°
2026-05-04 14:41 59.79799 30.24331 88 ft 28 kts 107°
2026-05-04 14:41 59.79689 30.25075 86 ft 28 kts 105°
2026-05-04 14:42 59.79576 30.25833 87 ft 27 kts 106°
2026-05-04 14:42 59.79527 30.26170 88 ft 24 kts 104°
2026-05-04 14:42 59.79538 30.26345 90 ft 9 kts 45°
2026-05-04 14:43 59.79588 30.26394 86 ft 8 kts 17°
2026-05-04 14:43 59.79639 30.26425 85 ft 7 kts 17°
2026-05-04 14:43 59.79689 30.26455 86 ft 3 kts 17°
2026-05-04 14:44 59.79692 30.26457 86 ft 3 kts 17°
2026-05-04 14:44 59.79735 30.26495 84 ft 3 kts 52°
2026-05-04 14:44 59.79737 30.26504 84 ft 0 kts 70°
2026-05-04 14:44 59.79733 30.26566 85 ft 9 kts 104°
2026-05-04 14:45 59.79722 30.26642 86 ft 0 kts 105°
2026-05-04 14:45 59.79722 30.26643 86 ft 0 kts 105°